Home > Weather > Idar-Oberstein > Past weeks

Flag for Germany Weather for the Past 2 Weeks in Idar-Oberstein, Rhineland-Palatinate, Germany

Now
32 °F

Light snow. Fog.


Feels Like: 23 °F
Forecast: 35 / 42 °F
Wind: 12 mph from Southeast

Location: Hahn

Current Time: Feb 13, 2016 at 4:20:33 PM

Latest Report: Feb 13, 2016 at 3:50 PM


Visibility: 0 mi

Pressure: 29.06 "Hg

Humidity: 100%

Dew point: 32 °F

Location of Idar-ObersteinLocation

Historic Weather in Idar-Oberstein — Graph

°F

Idar-Oberstein Temperature Yesterday

Maximum temperature yesterday: 36 °F (at 1:50 PM)
Minimum temperature yesterday: 28 °F (at 3:50 AM)
Average temperature yesterday: 32 °F

High & Low Weather Summary for the Past Weeks

 TemperatureHumidityPressure
High50 °F (Feb 1, 12:20 AM)100% (Jan 30, 5:50 PM)30.30 "Hg (Jan 30, 5:50 PM)
Low28 °F (Feb 12, 3:50 AM)60% (Feb 3, 4:50 PM)28.97 "Hg (Feb 9, 4:20 PM)
Average39 °F89%29.78 "Hg
* Reported Jan 29 2:20 PM — Feb 13 2:50 PM, Idar-Oberstein, Weather by CustomWeather, © 2016

Note: Actual official high and low records may vary slightly from our data, if they occured in-between our weather recording intervals... More about our weather records

Advertising

Idar-Oberstein Weather History for the Previous 24 Hours

 ConditionsComfort  
Time TempWeatherWind HumidityBarometerVisibility
2:50 PM
Sat, Feb 13
32 °FLight snow. Fog.13 mph100%29.09 "Hg0 mi
2:20 PM34 °FLight snow. Fog.16 mph93%29.12 "Hg2 mi
1:57 PM34 °FLight snow. Fog.17 mph93%29.12 "Hg2 mi
1:50 PM34 °FLight snow. Fog.16 mph93%29.15 "Hg1 mi
1:20 PM32 °FIce fog.16 mph100%29.15 "Hg1 mi
12:50 PM34 °FFog.13 mph93%29.18 "Hg2 mi
12:20 PM34 °FPartly sunny.14 mph93%29.18 "Hg4 mi
11:50 AM34 °FPartly sunny.15 mph93%29.21 "Hg4 mi
11:20 AM32 °FPartly sunny.12 mph100%29.21 "Hg4 mi
10:50 AM32 °FIce fog.9 mph93%29.24 "Hg1 mi
10:20 AM32 °FIce fog.9 mph93%29.24 "Hg1 mi
10:00 AM30 °FIce fog.9 mph100%29.24 "Hg3 mi
9:20 AM30 °FPartly sunny.8 mph93%29.27 "Hg6 mi
8:50 AM30 °FPartly sunny.8 mph93%29.27 "HgN/A
8:20 AM30 °FPartly sunny.9 mph93%29.27 "HgN/A
7:50 AM30 °FPartly sunny.9 mph93%29.27 "HgN/A
7:20 AM32 °FPassing clouds.9 mph87%29.30 "HgN/A
6:50 AM32 °FPassing clouds.9 mph87%29.30 "HgN/A
6:20 AM32 °FPassing clouds.8 mph87%29.30 "HgN/A
5:50 AM30 °FPassing clouds.6 mph93%29.30 "HgN/A
5:20 AM32 °FPassing clouds.8 mph87%29.30 "HgN/A
4:50 AM30 °FPassing clouds.7 mph93%29.30 "HgN/A
4:20 AM32 °FPassing clouds.7 mph87%29.30 "HgN/A
3:50 AM32 °FPassing clouds.6 mph87%29.30 "HgN/A
3:20 AM32 °FPassing clouds.6 mph87%29.33 "HgN/A
2:50 AM32 °FPassing clouds.3 mph87%29.33 "HgN/A
2:20 AM32 °FPassing clouds.7 mph87%29.33 "HgN/A
1:50 AM30 °FPassing clouds.8 mph93%29.33 "HgN/A
1:20 AM30 °FPassing clouds.6 mph86%29.33 "HgN/A
12:50 AM30 °FPassing clouds.6 mph86%29.33 "HgN/A
12:20 AM30 °FClear.8 mph86%29.30 "Hg10 mi
11:50 PM
Fri, Feb 12
30 °FClear.9 mph86%29.30 "Hg10 mi
10:50 PM32 °FClear.10 mph87%29.33 "Hg10 mi
10:20 PM32 °FClear.8 mph87%29.33 "Hg10 mi
9:50 PM34 °FClear.9 mph81%29.33 "Hg10 mi
9:20 PM34 °FClear.7 mph81%29.33 "Hg10 mi
8:50 PM34 °FPassing clouds.9 mph81%29.33 "HgN/A
8:20 PM34 °FPassing clouds.8 mph81%29.33 "HgN/A
7:50 PM34 °FClear.10 mph81%29.33 "Hg10 mi
7:20 PM34 °FPassing clouds.10 mph81%29.33 "HgN/A
6:50 PM34 °FPassing clouds.9 mph81%29.36 "HgN/A
6:20 PM34 °FPassing clouds.9 mph81%29.36 "HgN/A
5:50 PM34 °FPassing clouds.10 mph81%29.33 "HgN/A
5:20 PM34 °FScattered clouds.10 mph87%29.36 "HgN/A
4:50 PM34 °FScattered clouds.12 mph81%29.36 "HgN/A
4:20 PM36 °FScattered clouds.14 mph81%29.36 "HgN/A
Weather by CustomWeather, © 2016

See weather overviewHow to use our weather pages